Date String (YYYY-MM-DD hh:mm:ss) UTC,Instrument flags,Ambient pressure (hPa),Sample flow (lpm),Bypass flow (lpm),Sample temperature (°C),Ambient temperature (°C),ASC tube jacket temperature (°C),LED temperature (°C),Box temperature (°C),Sample RH (%),Span deviation,Mass concentration (μg/m³),Mass concentration (μg/m³),Mass concentration (μg/m³)
DateTimeUTC,F1_M11,P_M11,Q1_M11,Q2_M11,T1_M11,T2_M11,T3_M11,T4_M11,T5_M11,U1_M11,ZSPAN_M11,X0_M11,X2_M11,X1_M11
2022-09-25 23:00:00,,0833.3,4.99,0.00,30.0,27.9,00.0,38.7,31.8,16.8,-000.9,0015.60,0008.12,0007.46
2022-09-25 23:01:00,,0833.3,5.00,0.00,30.0,28.1,00.0,38.7,31.9,17.0,-000.7,0015.22,0008.02,0007.36
2022-09-25 23:02:00,,0833.3,5.00,0.00,30.0,28.3,00.0,38.7,31.9,16.9,-000.3,0013.45,0007.90,0007.28
2022-09-25 23:03:00,,0833.3,5.02,0.00,30.0,28.5,00.0,38.7,32.0,16.8,-000.1,0012.74,0007.86,0007.25
2022-09-25 23:04:00,,0833.3,5.00,0.00,30.1,28.7,00.0,38.7,32.0,16.7,-000.2,0012.82,0007.86,0007.25
2022-09-25 23:05:00,,0833.3,4.99,0.00,30.1,28.9,00.0,38.8,32.1,16.7,-000.2,0013.67,0007.92,0007.29
2022-09-25 23:06:00,,0833.3,5.02,0.00,30.1,29.1,00.0,38.8,32.1,16.6,0000.5,0013.83,0008.00,0007.35
2022-09-25 23:07:00,,0833.3,5.00,0.00,30.2,29.2,00.0,38.8,32.2,16.6,0000.6,0014.09,0008.06,0007.38
2022-09-25 23:08:00,,0833.3,4.99,0.00,30.2,29.3,00.0,38.8,32.2,16.6,0000.3,0013.89,0008.09,0007.41
2022-09-25 23:09:00,,0833.3,5.01,0.00,30.2,28.9,00.0,38.9,32.2,16.5,0000.1,0013.60,0008.06,0007.43
2022-09-25 23:10:00,,0833.2,5.00,0.00,30.2,27.3,00.0,38.8,32.0,16.5,0000.1,0014.21,0008.10,0007.47
2022-09-25 23:11:00,,0833.2,5.00,0.00,30.1,26.4,00.0,38.8,31.9,16.5,-000.2,0014.33,0008.17,0007.50
2022-09-25 23:12:00,,0833.2,5.00,0.00,30.1,26.6,00.0,38.7,31.8,16.6,-000.2,0014.44,0008.24,0007.54
2022-09-25 23:13:00,,0833.2,5.00,0.00,30.0,26.8,00.0,38.7,31.7,16.6,-000.7,0014.64,0008.32,0007.59
2022-09-25 23:14:00,,0833.2,5.01,0.00,29.9,27.2,00.0,38.7,31.7,16.6,-000.6,0014.81,0008.35,0007.62
2022-09-25 23:15:00,,0833.3,4.99,0.00,29.9,27.6,00.0,38.7,31.7,16.7,0000.2,0015.07,0008.42,0007.65
2022-09-25 23:16:00,,0833.3,5.00,0.00,29.9,27.9,00.0,38.7,31.8,16.7,0000.9,0014.50,0008.43,0007.66
2022-09-25 23:17:00,,0833.3,5.01,0.00,29.9,28.2,00.0,38.7,31.9,16.6,0001.1,0014.44,0008.41,0007.65
2022-09-25 23:18:00,,0833.3,4.99,0.00,30.0,28.4,00.0,38.7,31.9,16.5,0001.4,0014.39,0008.41,0007.66
2022-09-25 23:19:00,,0833.3,5.00,0.00,30.0,28.6,00.0,38.7,32.0,16.5,0001.7,0014.51,0008.43,0007.66
2022-09-25 23:20:00,,0833.3,5.00,0.00,30.0,28.7,00.0,38.7,32.0,16.5,0002.1,0015.27,0008.45,0007.66
2022-09-25 23:21:00,,0833.3,5.00,0.00,30.0,28.9,00.0,38.7,32.0,16.6,0002.3,0014.91,0008.42,0007.62
2022-09-25 23:22:00,,0833.3,5.00,0.00,30.1,29.0,00.0,38.7,32.1,16.6,0002.6,0014.35,0008.39,0007.60
2022-09-25 23:23:00,,0833.3,5.00,0.00,30.1,29.1,00.0,38.8,32.1,16.5,0002.6,0014.33,0008.39,0007.61
2022-09-25 23:24:00,,0833.3,5.00,0.00,30.2,29.2,00.0,38.8,32.2,16.6,0002.8,0014.42,0008.38,0007.58
2022-09-25 23:25:00,,0833.3,5.02,0.00,30.2,29.3,00.0,38.8,32.2,16.4,0002.8,0014.32,0008.38,0007.56
2022-09-25 23:26:00,,0833.3,4.99,0.00,30.2,28.4,00.0,38.8,32.2,16.3,0002.8,0013.99,0008.32,0007.53
2022-09-25 23:27:00,,0833.3,5.00,0.00,30.2,26.7,00.0,38.8,31.9,16.3,0002.4,0013.73,0008.28,0007.50
2022-09-25 23:28:00,,0833.3,4.99,0.00,30.1,26.4,00.0,38.7,31.9,16.3,0002.2,0014.09,0008.21,0007.46
2022-09-25 23:29:00,,0833.2,5.00,0.00,30.0,26.6,00.0,38.7,31.7,16.5,0002.0,0014.69,0008.14,0007.40
2022-09-25 23:30:00,,0833.3,5.01,0.00,29.9,27.0,00.0,38.7,31.7,17.0,0001.9,0015.52,0008.07,0007.35
2022-09-25 23:31:00,,0833.2,4.99,0.00,29.9,27.3,00.0,38.6,31.7,17.2,0001.8,0014.80,0008.05,0007.31
2022-09-25 23:32:00,,0833.3,5.00,0.00,29.9,27.6,00.0,38.6,31.7,17.4,0001.4,0014.78,0008.03,0007.27
2022-09-25 23:33:00,,0833.2,5.01,0.00,29.9,27.9,00.0,38.6,31.7,17.0,0001.2,0014.76,0007.98,0007.22
2022-09-25 23:34:00,,0833.2,4.99,0.00,29.9,28.2,00.0,38.6,31.8,17.2,0001.6,0014.89,0007.92,0007.16
2022-09-25 23:35:00,,0833.3,5.00,0.00,29.9,28.4,00.0,38.6,31.9,17.0,0001.5,0014.82,0007.82,0007.11
2022-09-25 23:36:00,,0833.3,5.00,0.00,30.0,28.6,00.0,38.7,31.9,16.5,0001.7,0014.71,0007.75,0007.06
2022-09-25 23:37:00,,0833.3,5.02,0.00,30.0,28.7,00.0,38.7,32.0,16.4,0001.6,0014.60,0007.76,0007.04
2022-09-25 23:38:00,,0833.3,4.99,0.00,30.0,28.8,00.0,38.7,32.0,16.3,0001.2,0014.24,0007.77,0007.02
2022-09-25 23:39:00,,0833.3,4.99,0.00,30.1,28.9,00.0,38.7,32.0,16.2,0000.9,0013.91,0007.81,0007.02
2022-09-25 23:40:00,,0833.2,5.01,0.00,30.1,29.1,00.0,38.7,32.1,16.3,0001.6,0013.24,0007.85,0007.04
2022-09-25 23:41:00,,0833.3,5.01,0.00,30.1,29.2,00.0,38.8,32.2,16.2,0002.5,0012.18,0007.88,0007.07
2022-09-25 23:42:00,,0833.3,5.00,0.00,30.2,29.2,00.0,38.8,32.2,16.1,0002.2,0012.47,0007.91,0007.12
2022-09-25 23:43:00,,0833.3,5.01,0.00,30.2,28.3,00.0,38.8,32.2,16.1,0001.8,0013.41,0007.95,0007.18
2022-09-25 23:44:00,,0833.3,5.00,0.00,30.2,26.6,00.0,38.8,32.0,16.1,0001.7,0013.61,0007.99,0007.22
2022-09-25 23:45:00,,0833.3,5.00,0.00,30.1,26.3,00.0,38.7,31.9,16.2,0001.0,0013.75,0008.05,0007.26
2022-09-25 23:46:00,,0833.3,4.99,0.00,30.0,26.5,00.0,38.7,31.7,16.3,0000.8,0014.32,0008.15,0007.31
2022-09-25 23:47:00,,0833.3,5.00,0.00,29.9,26.9,00.0,38.6,31.6,16.4,0000.7,0014.58,0008.20,0007.35
2022-09-25 23:48:00,,0833.3,5.00,0.00,29.9,27.3,00.0,38.6,31.7,16.4,0000.3,0015.01,0008.21,0007.36
2022-09-25 23:49:00,,0833.3,5.00,0.00,29.9,27.6,00.0,38.6,31.7,16.4,0000.4,0015.84,0008.14,0007.34
2022-09-25 23:50:00,,0833.2,5.00,0.00,29.9,27.9,00.0,38.6,31.7,16.5,0000.2,0016.16,0008.10,0007.32
2022-09-25 23:51:00,,0833.2,5.00,0.00,29.9,28.1,00.0,38.6,31.7,16.4,-000.2,0016.56,0008.05,0007.29
2022-09-25 23:52:00,,0833.2,4.99,0.00,29.9,28.3,00.0,38.6,31.8,16.5,-000.9,0016.70,0007.99,0007.23
2022-09-25 23:53:00,,0833.3,5.01,0.00,29.9,28.5,00.0,38.6,31.9,16.8,-001.1,0016.43,0007.92,0007.16
2022-09-25 23:54:00,,0833.3,4.99,0.00,30.0,28.7,00.0,38.7,32.0,16.9,-000.8,0015.50,0007.87,0007.10
2022-09-25 23:55:00,,0833.3,5.00,0.00,30.0,28.8,00.0,38.7,32.0,17.2,-000.9,0015.37,0007.79,0007.05
2022-09-25 23:56:00,,0833.3,5.01,0.00,30.0,28.9,00.0,38.7,32.0,16.9,-000.7,0015.41,0007.69,0006.98
2022-09-25 23:57:00,,0833.3,5.00,0.00,30.1,29.0,00.0,38.7,32.1,17.2,-000.8,0015.10,0007.62,0006.91
2022-09-25 23:58:00,,0833.3,5.00,0.00,30.1,29.1,00.0,38.8,32.1,17.4,-000.8,0015.20,0007.52,0006.84
2022-09-25 23:59:00,,0833.3,5.01,0.00,30.2,29.2,00.0,38.8,32.2,17.4,-000.4,0015.39,0007.50,0006.79
